EW1505 Weather Reports


time (UTC)temp
C
wind
direction
speed
KPH
gust
KPH
rain 1hr
cm
rain 24hr
cm
rain mn
cm
humidity
%
barometer
mb
20260505073036 18 247 1.6 3.2 0.00 0.05 0.03 58 1010.0
20260505072032 18 267 0.0 3.2 0.00 0.05 0.03 57 1009.7
20260505071932 18 247 3.2 6.4 0.00 0.05 0.03 57 1009.6
20260505070948 19 247 4.8 6.4 0.00 0.05 0.03 56 1009.7
20260505065949 19 223 6.4 11.3 0.00 0.05 0.03 56 1009.6
20260505064946 20 251 6.4 9.7 0.00 0.05 0.03 54 1009.5
20260505064031 20 228 8.0 12.9 0.00 0.05 0.03 54 1009.3
20260505062032 20 241 11.3 16.1 0.00 0.05 0.03 52 1009.2
20260505061030 20 238 11.3 17.7 0.00 0.05 0.03 52 1009.2
20260505060931 20 231 12.9 25.7 0.00 0.05 0.03 53 1009.3
20260505055947 20 236 12.9 20.9 0.00 0.05 0.03 53 1009.0
20260505055031 20 240 11.3 16.1 0.00 0.05 0.03 52 1008.8
20260505053034 20 222 12.9 16.1 0.00 0.05 0.03 52 1008.5
20260505052931 20 223 8.0 14.5 0.00 0.05 0.03 52 1008.5
20260505050931 20 246 9.7 17.7 0.03 0.05 0.03 52 1008.5
20260505041746 20 250 6.4 17.7 0.00 0.03 0.00 54 1009.0
20260505040832 20 253 11.3 14.5 0.00 0.03 0.00 54 1009.2
20260505035926 21 253 6.4 12.9 0.00 0.03 0.03 54 1009.2
20260505034927 21 233 9.7 14.5 0.00 0.03 0.03 54 1009.2
20260505033927 21 233 8.0 12.9 0.00 0.03 0.03 54 1009.3
20260505032944 21 242 6.4 11.3 0.00 0.03 0.03 54 1009.3
20260505031928 21 247 6.4 9.7 0.00 0.03 0.03 53 1009.3
20260505030942 21 236 6.4 9.7 0.00 0.03 0.03 54 1009.3
20260505030027 21 232 4.8 9.7 0.00 0.03 0.03 54 1009.2
20260505025926 21 244 8.0 11.3 0.00 0.03 0.03 54 1009.2
20260505024927 21 232 8.0 14.5 0.00 0.03 0.03 54 1009.0
20260505024827 21 233 8.0 11.3 0.00 0.03 0.03 54 1009.0
20260505023827 21 180 3.2 6.4 0.00 0.03 0.03 55 1008.9
20260505023726 21 180 4.8 8.0 0.00 0.03 0.03 55 1008.9
20260505022743 21 180 8.0 11.3 0.00 0.03 0.03 54 1008.7
20260505021727 21 180 4.8 9.7 0.00 0.03 0.03 54 1008.6
20260505020826 21 250 4.8 8.0 0.00 0.03 0.03 54 1008.5
20260505014925 21 207 1.6 4.8 0.00 0.03 0.03 55 1008.2
20260505012029 21 247 1.6 4.8 0.00 0.03 0.03 53 1008.0
20260505011927 21 248 3.2 9.7 0.00 0.03 0.03 52 1008.0
20260505010927 21 247 1.6 6.4 0.00 0.03 0.03 52 1007.9
20260505005928 21 247 6.4 11.3 0.00 0.03 0.03 51 1007.8
20260505004926 22 249 4.8 8.0 0.00 0.03 0.03 50 1007.9
20260505004827 22 254 3.2 6.4 0.00 0.03 0.03 50 1007.8
20260505003846 22 223 4.8 8.0 0.00 0.03 0.03 49 1007.9
20260505003741 22 225 6.4 9.7 0.00 0.03 0.03 48 1007.9
20260505002726 22 245 4.8 9.7 0.00 0.03 0.03 47 1007.8
20260505002644 22 245 4.8 6.4 0.00 0.03 0.03 48 1007.8
20260505001628 22 247 3.2 6.4 0.00 0.03 0.03 47 1007.8
20260505001527 22 238 4.8 9.7 0.00 0.03 0.03 46 1007.9
20260505000526 23 232 4.8 8.0 0.00 0.03 0.03 46 1007.9
20260504235529 23 236 9.7 22.5 0.00 0.03 0.03 44 1007.9
20260504235445 23 248 8.0 19.3 0.00 0.03 0.03 44 1008.0
20260504234443 23 223 6.4 9.7 0.00 0.03 0.03 44 1008.1
20260504233527 23 235 8.0 14.5 0.00 0.03 0.03 44 1008.3
20260504233427 23 252 8.0 19.3 0.00 0.03 0.03 44 1008.2
20260504232441 23 237 8.0 14.5 0.00 0.03 0.03 43 1008.3
20260504231526 23 237 12.9 22.5 0.00 0.03 0.03 44 1008.4
20260504230543 23 254 9.7 16.1 0.00 0.03 0.03 46 1008.3
20260504225627 23 233 11.3 16.1 0.00 0.03 0.03 47 1008.3
20260504224628 23 252 9.7 14.5 0.00 0.03 0.03 49 1008.5
20260504223627 23 236 3.2 8.0 0.00 0.03 0.03 49 1008.5
20260504222627 23 255 1.6 4.8 0.00 0.03 0.03 48 1008.8
20260504222544 23 255 3.2 8.0 0.00 0.03 0.03 48 1008.8
20260504221527 23 247 3.2 4.8 0.00 0.03 0.03 47 1008.8
20260504221445 23 247 3.2 4.8 0.00 0.03 0.03 47 1008.9
20260504220525 23 234 4.8 9.7 0.00 0.03 0.03 47 1008.9
20260504214526 23 247 3.2 4.8 0.00 0.03 0.03 46 1008.8
20260504213526 23 250 6.4 9.7 0.00 0.03 0.03 45 1009.3
20260504210626 23 251 4.8 6.4 0.00 0.05 0.03 46 1009.7
20260504205626 23 249 6.4 9.7 0.00 0.05 0.03 46 1009.9
20260504204626 23 240 9.7 19.3 0.00 0.05 0.03 46 1009.8
20260504203642 23 252 8.0 17.7 0.00 0.05 0.03 48 1010.0
20260504202542 23 247 12.9 19.3 0.00 0.05 0.03 50 1010.2
20260504201526 22 256 9.7 14.5 0.00 0.05 0.03 51 1010.5
20260504201427 22 246 11.3 14.5 0.00 0.05 0.03 51 1010.3
20260504200426 22 250 8.0 17.7 0.00 0.05 0.03 51 1010.3
20260504195525 22 241 11.3 19.3 0.00 0.05 0.03 52 1010.5
20260504190625 19 249 1.6 4.8 0.00 0.05 0.03 64 1011.7
20260504190543 19 247 1.6 3.2 0.00 0.05 0.03 64 1011.8
20260504185526 19 239 8.0 11.3 0.00 0.05 0.03 64 1011.8
20260504184527 20 247 1.6 3.2 0.00 0.05 0.03 59 1011.9
20260504183526 20 245 8.0 14.5 0.00 0.05 0.03 58 1011.9
20260504182527 20 237 8.0 19.3 0.00 0.05 0.03 57 1011.9
20260504182427 20 239 11.3 17.7 0.00 0.05 0.03 56 1011.8
20260504181426 20 249 12.9 17.7 0.00 0.05 0.03 56 1011.6
20260504180525 20 246 12.9 19.3 0.00 0.05 0.03 55 1011.3
20260504180426 21 240 14.5 22.5 0.00 0.05 0.03 55 1011.3
20260504175525 21 243 11.3 20.9 0.00 0.05 0.03 55 1011.1
20260504174427 21 241 8.0 14.5 0.00 0.05 0.03 56 1010.9
20260504173525 21 239 14.5 22.5 0.00 0.05 0.03 57 1010.8
20260504173443 21 261 9.7 16.1 0.00 0.05 0.03 57 1010.6
20260504172426 21 250 9.7 14.5 0.00 0.05 0.03 58 1010.9
20260504172326 21 246 8.0 12.9 0.00 0.05 0.03 58 1010.9
20260504170427 20 251 6.4 8.0 0.00 0.05 0.03 59 1011.1
20260504150741 17 180 8.0 12.9 0.00 0.05 0.03 60 1012.0
20260504130125 13 222 9.7 16.1 0.00 0.05 0.03 67 1012.7
20260504100525 12 225 0.0 0.0 0.00 0.03 0.00 64 1013.0
20260504100442 12 225 0.0 3.2 0.00 0.03 0.00 63 1013.0
20260504081724 12 225 6.4 11.3 0.00 0.03 0.00 58 1013.6
20260504080725 12 225 3.2 4.8 0.00 0.03 0.00 58 1013.8